Temp
23 24 23 25 27 27 28 28 28 28 29 29 30 29 31 31 32 31 24 24 22 23 21 20 20 20 20 19 19 19 18 18 17 17 18 18 18 17 17 17 17 17 17 17 16 16 17 18 18
22 24 24 26 27 27 29 28 28 28 29 29 29 29 29 32 31 30 28 23 22 22 22 21 20 20 20 20 20 20 19 17 17 17 18 18 17 18 18 17 17 17 17 16 16 16 16 17 17
23 23 27 26 25 26 28 27 28 28 29 28 30 30 31 32 30 29 24 23 22 22 22 21 20 19 20 20 20 19 18 17 17 17 17 17 17 18 17 17 17 17 16 16 16 16 16 16 16
24 26 26 26 26 27 26 27 27 27 29 28 30 30 31 28 29 26 23 22 23 22 22 20 19 20 20 20 19 19 18 17 17 17 17 17 17 18 17 17 17 16 16 15 15 15 15 15 15
24 26 26 26 26 26 27 27 27 27 28 28 28 31 31 27 24 24 23 22 23 22 22 20 20 19 19 19 19 19 18 17 17 17 18 18 17 18 17 17 17 16 15 15 15 15 15 15 15
26 26 26 25 26 26 27 27 26 27 28 28 29 29 30 26 25 23 22 22 22 22 21 21 19 19 19 19 19 18 18 17 17 17 18 18 17 17 17 17 16 16 15 16 16 16 16 15 15
24 25 25 25 25 25 26 26 27 27 28 28 28 29 30 29 23 22 22 22 21 21 21 21 20 19 19 19 19 19 18 17 17 17 17 17 17 17 17 16 16 16 16 16 16 16 16 16 16
25 25 24 25 26 25 26 26 26 26 28 28 28 29 30 27 23 22 21 22 22 21 21 21 21 20 20 20 19 18 18 17 17 17 17 17 17 17 17 17 17 16 16 16 16 16 16 16 16
23 24 24 25 25 26 26 25 26 26 26 27 28 28 28 25 23 23 22 22 22 21 21 21 21 21 21 21 20 18 18 18 17 17 17 17 18 18 17 17 17 16 16 16 16 16 16 16 16
23 24 24 25 26 26 25 25 25 25 27 27 28 29 28 26 26 26 25 25 23 23 22 21 20 21 20 20 20 19 20 19 19 19 19 19 19 18 17 16 16 16 16 16 16 16 16 16 17
23 23 25 24 25 25 24 25 25 25 26 27 27 28 29 27 27 27 26 25 25 24 23 21 21 21 21 20 20 20 20 19 19 19 18 18 18 18 17 17 17 17 17 16 17 17 17 17 17
22 24 24 24 24 24 24 25 25 25 26 28 28 28 26 27 28 27 27 26 25 23 23 22 21 21 20 20 20 20 20 19 19 19 18 18 18 18 18 18 17 17 17 17 17 17 17 17 17
22 24 24 24 23 23 24 24 25 25 27 28 27 26 26 27 27 26 25 24 24 23 23 22 21 21 21 20 20 20 20 19 19 19 18 18 18 18 18 18 18 18 17 17 17 17 17 17 18
23 23 23 24 24 24 23 25 23 26 28 28 27 26 26 25 24 24 23 24 23 22 22 21 21 21 21 21 20 20 20 20 19 19 18 18 18 18 18 17 18 17 17 17 17 17 17 17 18
23 22 23 23 23 24 23 24 25 26 26 25 26 26 24 22 22 22 20 21 20 21 20 21 20 21 20 21 20 20 19 18 19 18 18 17 17 17 17 17 17 18 17 17 17 17 17 17 17
21 21 21 24 24 24 23 23 26 26 26 26 25 25 23 21 21 20 19 19 19 19 20 19 18 19 20 20 20 19 19 18 18 18 17 17 17 17 17 17 17 17 17 17 17 17 17 17 17
20 20 21 23 24 24 23 24 26 25 25 26 27 25 23 22 21 19 18 18 19 19 19 19 18 19 18 18 18 18 17 18 17 17 17 17 16 16 16 16 16 16 16 16 16 16 16 16 16
20 20 23 22 24 22 23 23 25 26 25 26 26 25 23 22 21 19 18 18 18 18 18 18 18 18 18 18 18 18 17 17 16 16 16 16 16 15 16 16 16 16 16 16 16 16 16 16 16
22 22 22 23 24 22 23 24 25 26 26 26 25 24 23 22 19 18 18 18 18 18 18 18 18 18 19 19 19 18 17 16 15 15 15 15 14 14 15 15 15 15 15 15 15 15 15 16 16
22 22 22 23 22 22 23 24 25 26 26 26 26 24 23 21 20 19 18 18 18 18 18 17 17 17 17 17 17 17 16 15 14 14 13 14 13 13 13 13 13 13 14 14 13 13 13 14 14
21 21 22 22 21 22 22 24 26 24 23 22 23 24 23 21 20 20 19 17 17 17 16 16 16 16 16 16 16 16 15 15 15 14 13 12 12 12 12 12 12 12 12 12 12 12 12 12 12
20 22 22 21 21 22 22 23 25 26 25 22 22 22 22 21 20 20 19 17 16 15 15 15 15 15 15 16 16 16 15 14 13 13 13 12 11 11 11 11 11 11 11 11 11 11 11 11 12
21 21 21 21 20 19 22 22 26 23 25 23 22 21 21 20 20 19 18 16 15 14 14 14 14 14 14 14 14 14 14 13 13 12 12 12 11 10 9 9 9 9 10 9 9 9 10 10 10
20 20 20 20 20 21 23 23 26 26 25 23 22 21 20 20 19 18 16 15 14 13 14 13 13 13 13 13 13 12 12 12 12 11 12 11 11 10 9 9 9 9 8 8 8 8 8 8 8
21 21 17 17 18 22 20 21 26 25 23 23 22 21 20 19 18 17 17 16 15 14 13 13 13 12 12 12 11 11 11 11 11 11 10 10 10 9 8 8 8 8 7 7 7 7 7 7 7
19 21 21 21 21 22 18 22 25 23 22 21 23 22 20 19 19 18 17 16 14 13 13 13 12 11 11 11 10 10 10 10 10 9 9 9 8 8 7 7 7 7 7 7 7 6 6 7 7
16 19 21 21 19 22 23 24 24 22 21 20 21 21 19 19 18 18 16 15 14 13 12 12 11 10 10 10 10 9 9 9 8 8 8 7 7 6 6 6 6 6 6 6 6 6 6 6 6
18 20 18 20 21 21 23 23 25 24 23 20 20 20 20 19 18 17 16 14 13 12 11 11 11 10 9 9 9 8 8 8 7 7 7 6 6 6 6 6 5 6 5 5 5 5 5 5 5
17 15 16 20 21 23 23 24 24 23 22 21 21 21 20 18 18 17 16 14 12 11 11 10 10 9 9 8 8 8 7 7 7 6 6 5 5 5 5 5 5 5 5 5 5 5 5 4 5
20 19 20 20 20 20 22 24 22 21 20 19 21 20 20 19 18 16 15 13 12 11 10 10 9 9 8 8 7 7 6 6 6 6 5 5 5 4 4 4 4 4 4 4 4 4 4 4 4
Height
804 800 798 796 805 797 798 795 787 787 784 774 773 776 773 767 770 780 768 769 770 773 775 777 779 781 783 785 786 789 790 791 791 792 793 793 794 794 793 792 792 792 792 791 791 791 791 791 791
803 799 799 797 805 807 794 787 791 786 779 775 771 771 774 767 761 763 766 769 770 772 774 777 778 781 783 785 786 788 789 791 791 792 793 793 793 793 793 793 792 793 792 792 791 791 791 791 790
802 800 799 801 808 808 799 789 787 783 776 778 771 766 765 764 763 765 768 770 771 773 774 777 777 780 782 785 786 787 789 790 791 792 792 793 793 793 793 793 792 792 792 792 791 791 791 791 790
803 799 799 805 806 798 798 790 788 785 775 775 770 770 763 765 765 769 770 771 773 774 775 776 778 780 782 785 786 787 789 790 790 791 791 792 792 792 792 792 792 792 791 792 791 791 792 791 790
802 799 804 808 804 797 788 788 787 787 780 776 773 767 764 767 769 770 771 773 774 776 777 778 779 781 782 783 785 787 789 789 790 791 791 791 791 792 792 791 791 792 792 791 791 791 791 790 789
799 800 806 808 800 793 788 787 787 783 779 775 773 771 764 769 770 771 771 773 775 777 778 780 780 782 783 783 784 786 788 789 790 791 792 791 791 791 791 791 791 791 791 791 790 790 789 789 788
803 803 802 804 801 797 791 786 786 785 779 776 774 774 763 766 771 771 773 773 775 777 778 780 781 783 783 784 784 785 787 788 789 790 791 791 791 790 791 790 791 790 790 789 788 787 787 787 786
798 798 805 801 796 798 788 787 784 784 779 774 772 771 766 769 771 772 773 774 775 776 777 779 781 783 784 784 784 784 786 787 788 788 789 790 790 789 789 789 789 789 788 787 786 785 785 784 783
801 803 804 799 800 790 786 789 782 781 781 774 771 768 768 771 772 772 773 773 774 775 776 777 779 781 781 783 783 784 785 785 786 787 787 788 788 788 788 788 787 786 785 784 783 782 782 781 780
797 798 795 789 785 787 786 789 787 786 777 774 768 764 768 769 769 769 769 769 771 771 773 773 775 778 780 782 782 783 784 784 785 785 786 786 787 787 786 786 784 783 782 781 779 779 777 777 777
792 794 788 789 787 787 787 786 783 784 780 771 771 764 763 766 765 765 765 765 766 768 769 770 771 773 777 779 779 780 781 782 782 783 784 784 785 785 785 784 783 781 780 779 778 777 776 776 774
795 787 785 785 788 788 787 782 782 779 773 767 765 763 764 762 761 761 761 761 763 765 766 767 768 770 773 775 777 777 778 779 780 781 781 782 782 783 783 782 781 779 778 778 776 775 774 772 771
791 782 784 784 785 786 785 783 780 775 764 763 762 763 762 760 759 759 760 759 761 762 763 764 765 766 769 772 774 774 776 777 778 779 779 780 780 780 780 780 778 777 777 776 774 772 770 768 766
780 785 782 780 783 782 786 777 780 762 758 757 758 759 758 760 759 759 759 758 759 760 760 760 761 762 764 767 770 772 773 775 776 777 777 778 778 777 777 777 776 775 774 773 770 768 766 763 761
777 788 782 779 780 780 779 778 773 759 759 760 756 755 760 760 760 760 760 759 758 759 758 758 758 759 760 763 767 770 771 773 774 775 776 776 775 775 774 774 773 772 771 768 767 765 763 760 757
782 787 787 771 774 774 781 777 758 757 759 757 756 757 758 760 761 761 761 760 759 758 757 756 755 755 758 762 765 768 770 771 773 773 774 774 773 772 772 771 770 769 767 766 764 763 760 757 754
780 782 784 774 770 772 777 769 756 758 756 754 750 754 757 759 760 760 761 761 760 759 757 756 755 756 758 761 763 765 768 770 772 772 773 773 772 771 770 770 768 767 766 764 763 760 758 754 752
773 779 766 774 766 773 769 766 757 750 755 749 747 751 754 756 760 762 762 762 762 761 758 758 757 757 759 761 764 765 769 771 772 773 773 772 772 771 771 770 769 767 766 764 762 760 757 754 750
762 764 770 768 762 772 765 757 756 746 744 746 746 748 751 756 763 764 764 764 764 763 761 761 761 761 762 763 764 766 771 773 774 775 775 774 774 773 772 771 770 768 766 765 763 760 757 752 749
756 765 767 762 767 771 761 754 747 740 737 739 738 744 748 757 762 765 766 766 766 765 765 764 764 764 766 767 769 771 773 775 776 777 777 777 776 775 773 772 771 769 767 765 763 759 755 752 749
760 764 764 766 770 765 765 748 736 739 742 743 741 741 748 753 759 764 766 767 769 769 769 767 766 768 771 773 775 776 776 777 778 779 779 779 778 777 776 774 772 770 767 765 762 760 757 752 749
761 756 759 769 773 770 762 759 737 729 734 742 741 744 749 754 758 764 767 769 772 772 772 771 772 772 774 775 777 777 778 780 782 782 783 782 780 778 777 775 773 770 768 765 762 759 756 753 748
751 755 761 767 771 778 759 767 731 738 732 737 740 743 749 755 758 764 769 772 774 775 774 774 774 774 777 779 780 780 782 783 784 784 784 783 781 780 777 775 773 770 768 765 762 759 756 753 749
752 759 768 771 775 772 749 757 729 725 727 733 738 744 749 754 760 766 771 773 774 776 776 776 777 779 780 781 782 783 785 786 786 786 784 782 781 779 777 775 772 770 767 765 762 758 755 751 748
747 756 784 788 783 760 759 761 725 723 729 729 735 741 748 754 761 766 769 771 774 777 778 779 780 782 783 783 785 785 787 787 787 785 784 782 781 779 777 774 772 770 767 764 760 757 753 750 746
748 746 747 759 756 747 768 749 725 727 729 731 729 736 746 753 758 763 767 770 774 778 780 781 783 783 785 786 786 786 787 788 787 785 784 783 782 780 777 775 772 769 766 762 759 755 751 748 744
757 754 746 752 758 748 736 730 724 728 729 733 733 737 744 750 757 762 767 771 775 779 781 783 784 786 787 788 788 787 788 787 787 786 785 783 782 780 777 774 770 767 763 760 757 753 749 745 740
745 744 763 753 755 754 737 737 722 724 725 732 734 736 740 749 756 763 768 772 777 780 783 785 786 787 788 789 789 789 788 788 787 786 785 783 781 779 776 772 769 765 762 758 755 750 745 741 737
753 760 761 748 744 735 735 726 718 722 723 726 728 731 738 748 755 762 768 773 777 781 783 785 787 788 789 789 790 789 788 788 788 786 784 783 780 777 774 771 767 764 760 756 752 747 742 738 733
730 738 740 747 750 746 739 726 722 724 726 728 727 732 738 746 753 761 768 773 777 780 783 785 788 789 789 789 789 789 789 788 787 786 783 781 779 776 773 770 766 762 758 753 748 743 739 734 729
Wind_Speed
14 14 6 3 4 5 7 4 0 2 3 2 8 7 8 8 5 4 3 7 4 9 13 17 17 17 14 13 11 6 5 4 4 4 3 4 4 3 2 1 2 1 2 4 4 6 5 5 6
13 7 2 2 5 7 6 2 5 2 9 12 7 4 6 2 1 1 2 9 5 11 14 16 18 17 14 13 8 5 6 5 5 5 5 6 8 4 5 4 3 3 3 4 4 5 6 6 5
9 4 3 2 2 6 3 1 5 9 11 4 3 3 3 1 2 3 3 10 6 11 13 14 18 16 13 12 9 7 6 5 5 5 6 7 8 5 4 3 4 5 6 3 6 7 5 8 7
5 3 3 5 5 4 5 4 6 10 0 0 5 7 3 3 2 3 3 9 6 9 11 13 19 16 13 13 11 7 5 5 5 6 7 8 8 7 4 5 4 5 6 4 5 5 6 8 7
2 3 5 5 4 4 6 5 8 7 7 7 6 2 2 4 3 1 3 8 6 8 9 10 17 15 14 14 12 7 6 5 5 6 5 7 6 8 4 5 7 6 4 5 5 6 7 8 9
4 3 7 9 5 4 6 3 5 6 5 5 6 8 2 5 3 1 5 7 5 7 8 9 14 14 13 15 11 8 7 6 6 7 5 5 4 4 7 6 5 7 5 6 7 7 8 9 9
8 7 11 10 9 7 2 1 4 8 8 1 10 5 3 8 7 2 4 6 7 7 8 8 10 12 13 13 10 9 8 7 8 7 10 7 7 6 6 6 7 7 9 8 9 11 11 11 11
4 4 9 9 8 6 1 2 5 6 6 9 2 3 1 10 7 2 3 5 7 7 8 8 9 9 11 11 11 10 10 9 9 9 9 11 11 11 11 13 13 13 11 11 11 11 12 13 14
2 7 11 13 9 2 2 4 3 6 10 7 6 6 6 6 5 1 4 6 7 8 10 9 10 10 11 10 9 11 11 10 10 10 9 10 9 9 9 10 11 11 12 13 12 12 13 16 17
10 10 16 8 8 5 3 8 8 7 10 12 9 6 6 7 7 6 6 7 10 11 11 12 12 12 11 11 10 10 10 9 9 9 8 8 8 9 10 11 14 14 14 14 14 15 15 16 13
9 16 10 9 9 5 6 10 4 10 12 7 11 13 11 14 13 9 8 10 11 10 11 13 13 13 13 12 10 10 9 9 9 10 9 7 8 8 9 9 10 10 12 11 11 12 11 12 14
13 15 12 8 5 5 9 8 12 14 21 16 16 16 15 13 9 9 9 8 10 10 10 11 13 13 14 14 13 11 10 9 9 8 8 8 7 8 9 9 10 10 10 11 11 12 13 15 16
18 15 13 12 9 10 10 14 18 20 23 19 17 13 11 11 11 10 7 5 7 8 9 10 12 14 14 15 13 12 11 10 9 8 7 8 7 8 8 10 10 11 12 12 12 13 15 16 17
13 17 16 13 12 12 12 18 4 20 17 19 13 13 9 8 7 7 4 3 4 5 7 8 12 14 15 16 14 11 10 9 8 7 7 7 7 7 8 10 10 11 11 12 13 14 16 17 18
21 13 13 15 14 14 7 18 20 19 12 15 11 9 4 3 3 3 4 4 2 3 4 6 9 13 16 15 12 10 8 7 7 6 7 6 6 7 8 10 11 11 12 13 13 15 16 18 18
19 15 18 19 15 13 10 19 13 4 3 4 3 2 1 4 4 5 5 4 3 4 5 6 5 5 10 10 8 6 5 4 4 4 5 6 6 7 8 9 10 11 12 12 13 15 17 18 19
14 16 22 19 12 12 12 14 8 6 12 13 10 3 4 4 5 7 7 6 6 6 7 8 7 5 7 7 6 5 2 1 0 1 3 4 4 5 6 7 9 10 10 10 12 13 15 18 19
16 17 14 18 14 13 17 18 15 14 10 11 6 7 6 6 6 7 8 8 8 10 11 12 13 12 11 11 10 11 10 9 9 9 9 10 10 9 7 7 9 9 9 10 12 14 14 16 17
19 18 15 14 10 6 14 19 14 16 12 12 9 9 8 8 7 8 10 10 12 15 16 16 16 14 13 14 14 14 14 15 15 16 16 15 14 14 13 11 11 12 11 12 13 14 16 17 18
19 18 16 12 5 7 14 19 17 18 14 10 10 11 12 11 9 10 12 13 15 16 18 19 18 18 15 14 14 15 16 16 15 14 15 15 15 15 13 13 12 12 12 12 13 14 16 16 17
16 17 15 12 5 9 10 20 15 7 5 4 6 10 13 14 14 11 12 13 14 16 16 19 20 19 17 17 16 16 15 14 12 12 12 14 13 14 13 13 12 12 12 13 14 14 15 17 18
20 12 10 7 4 5 3 5 9 9 6 6 10 12 13 14 13 12 12 14 14 15 16 18 19 19 18 16 16 15 14 13 11 11 10 10 12 13 14 13 12 12 12 12 14 15 15 16 17
11 13 11 7 8 4 9 6 4 3 7 8 12 14 14 14 14 13 12 14 13 13 15 17 18 19 18 16 15 14 14 12 10 8 8 9 10 11 14 13 13 13 12 13 14 15 15 14 15
12 12 7 4 2 7 11 9 5 3 3 5 12 15 15 15 14 13 15 14 14 13 14 16 17 17 16 16 16 16 14 11 9 9 9 9 9 11 13 13 13 12 13 13 14 14 14 14 15
16 16 4 5 5 6 4 6 10 3 2 4 16 16 16 15 14 13 13 14 14 13 13 14 15 16 14 15 14 13 11 10 10 9 10 11 12 12 14 15 14 14 14 14 14 15 14 14 15
16 15 4 6 6 6 4 6 1 5 2 3 10 16 17 16 14 14 14 15 14 13 13 13 13 14 12 12 12 11 10 9 9 9 9 9 10 11 12 13 13 13 13 14 15 15 15 15 16
5 10 3 2 1 3 5 4 3 3 2 3 10 17 17 17 15 14 14 15 14 13 12 12 13 12 10 10 10 10 9 9 9 8 8 8 9 10 11 12 14 15 16 16 17 17 18 18 18
5 7 4 2 5 4 4 3 2 3 2 4 12 18 18 16 15 13 13 15 13 13 12 11 11 11 10 9 8 8 8 8 7 7 8 8 9 10 12 14 15 16 17 17 18 18 18 19 21
6 4 2 4 2 2 3 4 3 5 6 4 10 17 17 16 15 13 13 15 14 13 12 11 10 10 9 7 6 7 7 6 6 7 8 9 10 11 12 14 16 17 18 18 19 20 19 21 23
10 12 11 4 5 2 3 2 3 5 5 3 8 15 15 16 15 13 15 16 15 13 12 11 10 9 7 6 5 6 5 5 6 6 8 10 11 12 13 14 16 17 18 19 20 20 22 23 24
Wind_Direction
329 331 336 251 241 240 226 199 348 179 199 324 297 279 316 305 314 6 97 159 124 159 169 179 180 182 183 177 181 194 204 211 208 214 218 224 210 216 229 142 36 355 8 0 345 349 328 317 291
326 327 8 300 251 231 207 199 200 304 314 308 274 231 245 317 287 79 153 171 143 162 168 177 183 187 191 185 181 222 215 218 212 224 230 249 233 206 223 269 259 307 3 332 336 310 333 327 277
321 339 280 279 241 254 270 181 320 319 309 267 269 242 301 0 83 25 74 163 151 162 168 179 187 185 184 192 193 202 214 219 223 240 241 263 229 213 207 242 263 300 286 296 301 315 304 307 308
315 220 161 259 272 252 263 313 333 325 358 267 318 267 200 19 23 53 116 158 154 165 171 189 184 191 188 198 199 212 227 224 232 244 240 256 258 222 238 303 311 325 327 317 322 326 287 291 296
321 251 253 249 267 271 265 298 319 312 314 303 331 289 300 59 1 47 131 161 162 167 173 183 189 194 193 196 204 217 234 223 237 237 254 268 268 231 258 253 284 332 319 320 310 302 296 293 283
238 278 240 252 260 270 284 267 302 301 312 308 324 305 54 31 6 50 149 162 166 169 172 182 193 199 205 200 208 222 226 226 230 236 242 269 259 241 277 242 291 316 307 309 304 298 286 291 284
254 244 257 260 269 281 278 266 291 323 308 211 328 271 79 44 17 85 153 155 160 170 180 186 195 206 206 213 219 227 227 226 229 243 243 269 271 276 290 295 291 290 301 295 293 290 287 287 293
253 250 242 238 246 270 180 273 315 288 309 325 285 254 83 20 11 139 160 171 173 185 192 197 203 205 210 221 225 234 233 235 235 245 249 254 262 265 276 271 283 280 280 281 283 283 287 282 280
226 230 236 238 222 233 158 306 345 303 280 287 274 277 6 354 16 185 203 198 195 205 205 204 210 214 213 219 225 229 243 249 250 258 262 256 256 258 263 269 272 283 284 279 283 278 272 274 277
216 229 234 242 238 240 277 297 312 295 285 281 265 252 286 335 330 308 257 233 215 213 213 210 214 219 220 224 222 228 232 233 240 246 247 258 257 260 261 269 278 279 283 282 282 278 279 281 281
205 233 226 228 237 261 281 283 288 289 280 272 300 302 305 305 304 285 283 245 230 223 218 215 216 218 223 225 221 225 226 229 236 240 245 256 259 265 271 273 279 279 283 282 283 288 285 278 281
224 232 226 232 230 251 268 293 279 276 273 284 287 296 298 295 304 297 293 255 230 229 234 228 224 220 225 225 226 225 227 227 232 237 239 247 257 263 270 274 276 281 286 285 290 288 287 286 284
225 226 226 239 251 257 274 270 278 279 274 281 276 278 274 293 298 298 287 253 240 238 243 237 229 225 225 225 227 226 229 232 237 242 246 244 257 267 277 280 290 291 290 292 294 293 291 290 288
207 234 241 242 250 257 268 275 300 267 286 287 278 263 280 299 313 288 300 284 255 264 256 250 241 231 224 222 224 227 230 239 242 248 255 251 257 274 288 294 293 290 291 291 292 289 289 287 286
227 228 232 243 246 248 263 269 252 275 299 283 272 262 273 2 3 8 342 320 326 288 300 295 266 238 224 220 221 227 233 242 250 259 267 268 275 283 285 285 288 293 290 296 298 297 293 291 293
212 233 237 232 227 242 221 261 266 270 286 307 288 214 125 76 49 32 13 352 360 350 349 340 307 236 213 209 203 214 226 241 260 274 282 283 285 284 288 291 295 301 306 305 305 305 304 302 302
214 211 223 237 209 232 218 262 254 216 289 274 252 206 146 118 77 50 35 37 40 27 28 31 47 107 143 162 160 155 128 104 37 5 329 323 324 314 304 311 321 322 319 321 318 315 312 309 307
182 211 221 226 223 226 228 246 257 281 274 267 235 188 159 135 84 67 63 65 63 58 61 68 73 85 103 110 113 101 91 84 76 68 61 58 50 44 41 31 19 9 358 351 342 332 324 315 312
201 211 216 216 208 240 246 262 263 276 272 251 219 192 162 131 100 88 80 81 76 69 68 68 73 80 98 104 101 99 95 89 79 72 65 61 55 47 43 33 21 13 5 356 347 337 331 324 322
215 202 215 235 200 249 263 271 277 270 261 250 217 184 163 141 125 105 97 91 82 78 74 73 73 73 78 88 92 99 98 86 82 72 62 54 47 41 34 26 15 6 354 347 345 340 332 322 324
199 198 201 220 180 242 277 276 252 207 190 182 206 176 162 154 141 131 114 97 90 82 80 80 81 83 83 87 93 95 92 86 73 58 52 45 41 34 27 19 10 0 355 346 341 338 332 321 320
194 199 193 187 261 245 329 285 242 234 230 206 170 166 161 153 141 134 121 106 95 89 86 84 85 84 81 88 91 90 84 79 64 57 46 38 34 28 21 12 7 359 351 345 340 337 332 329 323
204 165 210 233 257 292 226 257 243 189 235 198 174 167 163 159 148 138 126 116 106 100 94 92 88 83 82 82 81 81 79 74 62 50 39 29 20 18 13 7 1 357 352 345 340 337 334 330 324
141 142 125 123 233 244 230 231 267 171 83 153 168 170 163 159 151 139 134 129 116 110 102 98 93 86 84 83 81 80 77 69 57 40 29 16 9 6 5 3 360 357 353 347 341 337 334 330 326
171 166 145 186 205 240 149 206 257 182 239 155 174 176 169 162 158 152 149 138 128 119 110 104 101 96 91 88 81 78 74 66 51 34 21 11 4 359 356 359 356 352 347 343 339 334 330 325 323
187 172 200 184 194 175 191 230 154 82 304 200 195 175 167 167 167 163 153 143 137 130 121 116 109 101 95 90 85 76 66 55 41 30 19 9 1 355 350 349 347 342 340 339 335 329 324 319 316
171 200 119 138 68 223 172 231 212 140 76 178 186 171 174 173 170 162 154 149 143 135 125 121 115 108 99 91 84 73 59 49 39 24 13 7 359 348 344 343 341 340 339 335 331 324 321 320 317
144 162 169 248 188 214 189 242 178 159 6 143 177 183 175 170 168 161 157 152 144 135 127 122 119 113 103 90 77 66 56 42 30 17 10 3 351 345 343 341 340 336 333 330 326 321 320 318 315
155 161 165 293 288 238 163 137 96 302 310 256 186 184 172 170 169 165 160 154 146 140 138 131 127 123 108 93 78 64 49 34 20 12 4 352 346 343 339 337 335 330 326 324 322 321 319 317 313
173 171 186 204 181 242 339 122 148 314 310 235 179 177 173 170 169 166 160 155 154 150 148 143 139 127 112 95 76 55 35 19 10 359 359 349 342 338 335 332 326 323 322 323 322 321 319 315 312